Find Starlink 32400

NORAD ID: 61669 Int'l Des: 2024-193 Owner: SPXS Country: US Constellation: starlink operational
LEOCIRCULAR

Current View

Loading 3D Globe...

About Starlink 32400

Starlink 32400 (NORAD 61669) is a starlink constellation satellite (v2 mini) launched Oct 26, 2024 by SPXS of US. It operates in LEO, CIRCULAR orbit with a mass of 730.00 kg.

Upcoming Passes

Passes for default location (London). Set your location on the main map for personalized predictions.

Altitude History

Loading altitude history...

Two-Line Element Set

1 61669U 24193J 26263.97761526 .00002943 00000-0 98181-4 0 9998
2 61669 53.1592 259.1280 0001371 49.2531 310.8590 15.34406420106493
Epoch: Sep 20, 2026 • Age: 13 hours

Current Status

Altitude 463.6 km
Apogee / Perigee N/A
Velocity 7.64 km/s
Sub-Earth Point 4.18°N, 117.89°W
Launch Date Oct 26, 2024
Age 1.9 years
Type internet

Technical Details

Classification Payload
Mass 730.00 kg
Dry Mass 700.00 kg
Length 0.30 m
Span 29.00 m
Shape ? Box + pan
Manufacturer SPXS
Bus Type Starlink V2M
Phase Status In Orbit
Owner/State SPXS/US

Most Searched